EW6800 Weather Reports


time (UTC)temp
C
wind
direction
speed
KPH
gust
KPH
rain 1hr
cm
rain 24hr
cm
rain mn
cm
humidity
%
barometer
mb
20260505025045 9 317 3.2 8.0 0.00 0.00 0.00 87 1014.5
20260505024553 9 319 4.8 11.3 0.00 0.00 0.00 86 1014.4
20260505024045 9 298 4.8 12.9 0.00 0.00 0.00 87 1014.4
20260505023544 9 311 4.8 14.5 0.00 0.00 0.00 86 1014.6
20260505023051 9 303 6.4 16.1 0.00 0.00 0.00 86 1014.5
20260505022543 9 294 8.0 16.1 0.00 0.00 0.00 85 1014.5
20260505022043 9 313 6.4 16.1 0.00 0.00 0.00 85 1014.6
20260505021552 10 309 9.7 16.1 0.00 0.00 0.00 85 1014.4
20260505021044 10 289 8.0 16.1 0.00 0.00 0.00 85 1014.3
20260505020544 10 307 8.0 14.5 0.00 0.00 0.00 84 1014.4
20260505020059 10 319 8.0 16.1 0.00 0.00 0.00 84 1014.5
20260505015543 10 312 8.0 16.1 0.00 0.00 0.00 84 1014.6
20260505015047 10 310 8.0 16.1 0.00 0.00 0.00 84 1014.5
20260505014552 10 305 6.4 12.9 0.00 0.00 0.00 84 1014.5
20260505014043 10 321 6.4 12.9 0.00 0.00 0.00 84 1014.6
20260505013543 11 300 3.2 12.9 0.00 0.00 0.00 83 1014.6
20260505013103 11 326 6.4 11.3 0.00 0.00 0.00 83 1014.6
20260505012543 11 292 4.8 8.0 0.00 0.00 0.00 82 1014.7
20260505012044 11 303 4.8 8.0 0.00 0.00 0.00 82 1014.7
20260505011545 11 304 4.8 8.0 0.00 0.00 0.00 81 1014.9
20260505011044 11 312 4.8 8.0 0.00 0.00 0.00 81 1014.7
20260505010543 11 305 3.2 8.0 0.00 0.00 0.00 81 1014.7
20260505010110 11 298 1.6 8.0 0.00 0.00 0.00 82 1014.8
20260505005543 11 309 3.2 11.3 0.00 0.00 0.00 82 1014.9
20260505005043 11 328 3.2 11.3 0.00 0.00 0.00 81 1015.0
20260505004548 11 312 1.6 8.0 0.00 0.00 0.00 82 1015.1
20260505004042 11 313 3.2 12.9 0.00 0.00 0.00 82 1015.0
20260505003545 11 306 3.2 12.9 0.00 0.00 0.00 82 1015.0
20260505003054 11 313 6.4 12.9 0.00 0.00 0.00 83 1015.0
20260505002543 11 292 4.8 12.9 0.00 0.00 0.00 83 1015.1
20260505002043 11 310 4.8 12.9 0.00 0.00 0.00 83 1015.1
20260505001553 11 318 4.8 11.3 0.00 0.00 0.00 83 1015.1
20260505001046 10 327 3.2 11.3 0.00 0.00 0.00 84 1015.0
20260505000543 10 309 3.2 11.3 0.00 0.00 0.00 84 1015.0
20260505000047 10 317 4.8 11.3 0.00 0.00 0.00 85 1015.0
20260504235543 10 304 4.8 11.3 0.00 0.00 0.00 85 1015.0
20260504235043 10 336 3.2 12.9 0.00 0.00 0.00 86 1015.0
20260504234548 10 309 4.8 12.9 0.00 0.00 0.00 86 1015.0
20260504234045 10 314 4.8 11.3 0.00 0.00 0.00 86 1015.0
20260504233543 10 306 4.8 11.3 0.00 0.00 0.00 86 1015.2
20260504233107 10 313 3.2 6.4 0.00 0.00 0.00 87 1015.1
20260504232545 9 309 1.6 8.0 0.00 0.00 0.00 88 1015.1
20260504232043 9 315 3.2 9.7 0.00 0.00 0.00 88 1015.1
20260504231552 9 308 4.8 14.5 0.00 0.00 0.00 88 1015.0
20260504231043 9 312 6.4 14.5 0.00 0.00 0.00 87 1015.2
20260504230544 10 306 8.0 14.5 0.00 0.00 0.00 87 1015.3
20260504230054 10 308 8.0 14.5 0.00 0.00 0.00 87 1015.2
20260504225545 10 323 8.0 14.5 0.00 0.00 0.00 86 1015.2
20260504225043 10 319 9.7 14.5 0.00 0.00 0.00 85 1015.2
20260504224558 11 286 8.0 14.5 0.00 0.00 0.00 85 1015.1
20260504224044 11 302 6.4 14.5 0.00 0.00 0.00 83 1015.1
20260504223544 11 292 8.0 14.5 0.00 0.00 0.00 82 1015.2
20260504223055 11 296 4.8 11.3 0.00 0.00 0.00 83 1015.2
20260504222544 11 304 4.8 11.3 0.00 0.00 0.00 83 1015.2
20260504222047 11 287 4.8 11.3 0.00 0.00 0.00 82 1015.2
20260504221552 11 313 3.2 11.3 0.00 0.00 0.00 84 1015.2
20260504221044 11 300 4.8 11.3 0.00 0.00 0.00 83 1015.2
20260504220545 11 290 4.8 11.3 0.00 0.00 0.00 82 1015.3
20260504220054 11 286 3.2 8.0 0.00 0.00 0.00 84 1015.4
20260504215547 10 321 3.2 8.0 0.00 0.00 0.00 86 1015.5
20260504215043 10 316 3.2 8.0 0.00 0.00 0.00 88 1015.5
20260504214556 10 303 4.8 11.3 0.00 0.00 0.00 88 1015.5
20260504214049 10 318 3.2 11.3 0.00 0.00 0.00 88 1015.6
20260504213545 10 304 3.2 8.0 0.00 0.00 0.00 88 1015.6
20260504213052 10 304 3.2 8.0 0.00 0.00 0.00 88 1015.6
20260504212544 10 310 3.2 9.7 0.00 0.00 0.00 88 1015.5
20260504212048 10 303 3.2 9.7 0.00 0.00 0.00 88 1015.6
20260504211550 10 317 4.8 11.3 0.00 0.00 0.00 87 1015.7
20260504211046 10 297 4.8 12.9 0.00 0.00 0.00 87 1015.7
20260504210549 10 311 4.8 14.5 0.00 0.00 0.00 87 1015.7
20260504210105 10 301 8.0 14.5 0.00 0.00 0.00 87 1015.7
20260504205547 10 318 4.8 12.9 0.00 0.00 0.00 87 1015.7
20260504205046 10 298 4.8 12.9 0.00 0.00 0.00 86 1015.6
20260504204557 10 318 6.4 12.9 0.00 0.00 0.00 85 1015.6
20260504204040 10 323 1.6 12.9 0.00 0.00 0.00 85 1015.6
20260504203544 10 306 4.8 12.9 0.00 0.00 0.00 85 1015.6
20260504203105 10 298 6.4 12.9 0.00 0.00 0.00 85 1015.5
20260504202545 10 304 4.8 12.9 0.00 0.00 0.00 85 1015.6
20260504202045 10 305 6.4 11.3 0.00 0.00 0.00 85 1015.6
20260504201549 10 316 3.2 11.3 0.00 0.00 0.00 84 1015.6
20260504201044 10 313 4.8 9.7 0.00 0.00 0.00 84 1015.7
20260504200544 10 312 3.2 11.3 0.00 0.00 0.00 83 1015.6
20260504200053 10 310 6.4 11.3 0.00 0.00 0.00 82 1015.6
20260504195544 11 325 6.4 11.3 0.00 0.00 0.00 82 1015.6
20260504195044 11 316 1.6 11.3 0.00 0.00 0.00 81 1015.7
20260504194600 11 317 3.2 6.4 0.00 0.00 0.00 80 1015.6
20260504194042 11 323 0.0 3.2 0.00 0.00 0.00 81 1015.7
20260504193544 11 323 0.0 4.8 0.00 0.00 0.00 81 1015.6
20260504193053 11 0 0.0 4.8 0.00 0.00 0.00 81 1015.5
20260504192545 11 0 0.0 4.8 0.00 0.00 0.00 80 1015.6
20260504192043 11 323 1.6 4.8 0.00 0.00 0.00 82 1015.7
20260504191551 11 0 0.0 8.0 0.00 0.00 0.00 82 1015.6
20260504191044 11 0 3.2 8.0 0.00 0.00 0.00 82 1015.6
20260504190544 11 0 0.0 8.0 0.00 0.00 0.00 83 1015.6
20260504190121 10 306 0.0 6.4 0.00 0.00 0.00 85 1015.5
20260504185544 10 306 1.6 6.4 0.00 0.00 0.00 84 1015.6
20260504185045 10 321 3.2 4.8 0.00 0.00 0.00 85 1015.5
20260504184553 10 0 0.0 4.8 0.00 0.00 0.00 84 1015.6
20260504184047 10 0 1.6 4.8 0.00 0.00 0.00 84 1015.6
20260504183545 10 322 3.2 8.0 0.00 0.00 0.00 83 1015.6
20260504183051 10 0 3.2 8.0 0.00 0.00 0.00 82 1015.5
20260504182544 11 0 1.6 8.0 0.00 0.00 0.00 82 1015.6
20260504182045 11 329 3.2 8.0 0.00 0.00 0.00 82 1015.6
20260504181555 11 319 1.6 6.4 0.00 0.00 0.00 81 1015.4
20260504181044 11 0 1.6 6.4 0.00 0.00 0.00 80 1015.4
20260504180546 11 0 3.2 6.4 0.00 0.00 0.00 80 1015.4
20260504180052 11 302 1.6 6.4 0.00 0.00 0.00 80 1015.4
20260504175543 11 302 3.2 6.4 0.00 0.00 0.00 80 1015.1
20260504175044 11 268 0.0 6.4 0.00 0.00 0.00 80 1015.2
20260504174559 11 0 0.0 0.0 0.00 0.00 0.00 79 1015.1
20260504174044 11 0 0.0 4.8 0.00 0.00 0.00 78 1015.1
20260504173543 11 0 0.0 4.8 0.00 0.00 0.00 79 1015.0
20260504173052 11 0 0.0 4.8 0.00 0.00 0.00 76 1015.0
20260504172544 11 0 0.0 0.0 0.00 0.00 0.00 77 1015.0
20260504172045 11 0 0.0 0.0 0.00 0.00 0.00 78 1014.9
20260504171551 11 0 0.0 0.0 0.00 0.00 0.00 78 1015.0
20260504171045 11 0 0.0 3.2 0.00 0.00 0.00 78 1014.8
20260504170544 11 0 0.0 3.2 0.00 0.00 0.00 77 1014.7
20260504151044 8 0 0.0 6.4 0.00 0.03 0.00 86 1014.8
20260504150544 8 306 1.6 6.4 0.00 0.03 0.00 86 1014.8
20260504141044 7 0 0.0 0.0 0.00 0.03 0.00 92 1014.5
20260504140544 7 0 0.0 0.0 0.00 0.03 0.00 92 1014.5
20260504130544 7 0 0.0 0.0 0.00 0.03 0.00 93 1014.1
20260504110544 7 0 0.0 0.0 0.00 0.03 0.00 93 1014.2
20260504100546 7 0 0.0 0.0 0.00 0.03 0.00 94 1014.1
20260504100218 7 0 0.0 0.0 0.00 0.03 0.00 94 1014.1
20260504081549 7 178 1.6 3.2 0.00 0.03 0.00 93 1014.7
20260504081044 7 0 0.0 3.2 0.00 0.03 0.00 93 1014.7
20260504080545 7 0 0.0 3.2 0.00 0.03 0.00 93 1014.7
20260504050544 7 0 0.0 3.2 0.00 0.03 0.03 91 1014.8
20260504050114 7 0 0.0 3.2 0.00 0.03 0.03 91 1014.6
20260504045547 7 0 0.0 3.2 0.00 0.03 0.03 90 1014.6
20260504045045 7 119 0.0 3.2 0.00 0.03 0.03 90 1014.4
20260504044552 7 119 1.6 3.2 0.00 0.03 0.03 90 1014.5
20260504044043 7 0 0.0 1.6 0.00 0.03 0.03 90 1014.4
20260504043544 7 0 0.0 0.0 0.00 0.03 0.03 89 1014.5
20260504043106 7 0 0.0 0.0 0.00 0.03 0.03 89 1014.3
20260504042543 7 0 0.0 0.0 0.00 0.03 0.03 89 1014.3
20260504042044 7 0 0.0 0.0 0.00 0.03 0.03 89 1014.4
20260504041550 7 0 0.0 0.0 0.00 0.03 0.03 88 1014.2
20260504041044 7 0 0.0 3.2 0.00 0.03 0.03 88 1014.1
20260504040545 7 0 0.0 3.2 0.00 0.03 0.03 88 1014.1
20260504040100 7 0 0.0 4.8 0.00 0.03 0.03 88 1014.0
20260504035544 7 0 0.0 4.8 0.00 0.03 0.03 88 1013.9
20260504035044 8 222 0.0 1.6 0.00 0.03 0.03 88 1013.9
20260504034601 8 0 0.0 4.8 0.00 0.03 0.03 87 1013.8
20260504034043 8 0 0.0 4.8 0.00 0.03 0.03 87 1013.7
20260504033544 8 254 0.0 3.2 0.00 0.03 0.03 87 1013.5
20260504033056 8 254 0.0 1.6 0.00 0.03 0.03 87 1013.6
20260504032544 8 0 0.0 1.6 0.00 0.03 0.03 87 1013.5
20260504032047 8 254 0.0 1.6 0.00 0.03 0.03 87 1013.3
20260504031604 8 0 0.0 1.6 0.00 0.03 0.03 86 1013.3
20260504031043 8 0 0.0 1.6 0.00 0.03 0.03 86 1013.2
20260504030543 8 0 0.0 1.6 0.00 0.03 0.03 85 1013.1
20260504030054 8 0 0.0 1.6 0.00 0.03 0.03 85 1013.2
20260504025543 8 0 0.0 3.2 0.00 0.03 0.03 84 1013.2